period_start,C,m1,H,J0,J1,J2,J3,J4,J5,JA,JB,JC,JD,JJ,JK,JN,#
2014-05-01 00:00:16,0.07,2.79,0.00,15.08,22.22,23.71,6.23,31.88,1015.97,2056.88,2373.12,2676.02,2859.97,350.26,333.37,34.97,0000 0000 0000 0000 000000
2014-05-01 00:01:17,0.04,2.79,0.00,15.11,22.23,23.68,2.98,16.00,1015.87,2056.89,2373.07,2676.01,2859.94,184.68,175.51,34.97,0000 0000 0000 0000 000009
2014-05-01 00:02:17,0.04,0.00,0.00,15.13,22.24,23.67,5.88,29.96,1015.76,2059.00,3512.67,3373.65,3674.27,318.39,307.22,0.00,0000 0000 0000 0000 000002
2014-05-01 00:03:17,0.04,0.00,0.00,15.09,22.24,23.67,6.09,30.54,1015.87,2059.00,3510.43,3373.15,3674.30,349.99,332.61,0.01,0000 0000 0000 0000 000002
2014-05-01 00:04:17,0.04,0.00,0.00,15.09,22.24,23.67,6.31,30.63,1015.98,2059.00,3509.05,3372.68,3674.11,350.82,333.59,0.01,0000 0000 0000 0000 000002
2014-05-01 00:05:18,0.04,0.00,0.00,15.12,22.23,23.63,6.02,30.42,1015.90,2059.00,3508.36,3372.29,3674.02,348.75,331.22,0.00,0000 0000 0000 0000 000000
2014-05-01 00:06:18,0.04,0.00,0.00,15.15,22.23,23.68,6.33,30.88,1015.78,2059.00,3507.76,3372.14,3673.94,350.46,332.95,0.00,0000 0000 0000 0000 000000
2014-05-01 00:07:18,0.04,0.00,0.00,15.19,22.22,23.69,6.11,30.71,1015.79,2059.00,3507.28,3372.05,3673.52,350.07,332.53,0.01,0000 0000 0000 0000 000000
2014-05-01 00:08:18,0.04,0.00,0.00,15.22,22.22,23.69,6.24,30.67,1015.84,2059.00,3507.08,3372.02,3673.19,350.62,333.05,0.02,0000 0000 0000 0000 000000
2014-05-01 00:09:19,0.04,0.00,0.00,15.16,22.22,23.69,6.33,30.63,1015.88,2059.00,3506.64,3372.00,3673.05,351.88,334.32,0.02,0000 0000 0000 0000 000000
2014-05-01 00:10:19,0.04,0.00,0.00,15.04,22.22,23.70,6.28,30.63,1015.88,2059.00,3506.24,3371.99,3672.95,350.67,333.30,0.03,0000 0000 0000 0000 000000
2014-05-01 00:11:19,0.04,0.00,0.00,15.02,22.22,23.70,6.27,30.75,1015.84,2059.00,3506.08,3371.98,3672.57,350.43,333.10,0.03,0000 0000 0000 0000 000000
2014-05-01 00:12:19,0.03,0.00,0.00,14.97,22.22,23.69,6.28,30.83,1015.89,2059.00,3505.83,3371.96,3672.27,350.40,333.13,0.04,0000 0000 0000 0000 000000
2014-05-01 00:13:20,0.03,0.00,0.00,14.95,22.22,23.67,6.27,30.58,1015.90,2059.00,3505.36,3371.82,3672.10,350.68,333.43,0.04,0000 0000 0000 0000 000000
2014-05-01 00:14:20,0.04,0.00,0.00,14.97,22.22,23.68,6.25,30.58,1015.91,2059.00,3505.15,3371.58,3672.03,351.52,334.21,0.05,0000 0000 0000 0000 000000
2014-05-01 00:15:20,0.04,0.00,0.00,14.97,22.22,23.68,6.12,30.88,1015.94,2059.00,3505.05,3371.29,3672.00,349.53,332.34,0.06,0000 0000 0000 0000 000000
2014-05-01 00:16:20,0.04,0.00,0.00,15.01,22.22,23.69,6.28,30.83,1016.01,2059.00,3504.93,3371.15,3671.87,349.99,332.75,0.06,0000 0000 0000 0000 000000
2014-05-01 00:17:21,0.04,0.00,0.00,15.07,22.22,23.70,6.19,30.71,1016.05,2059.00,3504.47,3371.07,3671.43,349.39,331.75,0.07,0000 0000 0000 0000 000000
2014-05-01 00:18:21,0.05,0.00,0.00,15.10,22.22,23.66,6.23,30.88,1016.04,2059.00,3504.18,3371.03,3671.16,350.10,332.75,0.07,0000 0000 0000 0000 000000
2014-05-01 00:19:21,0.05,0.00,0.00,15.13,22.22,23.54,6.19,30.63,1016.07,2059.00,3504.06,3371.01,3671.05,350.84,333.43,0.08,0000 0000 0000 0000 000000
2014-05-01 00:20:22,0.05,0.00,0.00,15.16,22.22,23.49,6.14,30.88,1016.07,2059.00,3503.99,3371.00,3670.99,349.51,332.14,0.09,0000 0000 0000 0000 000000
2014-05-01 00:21:22,0.05,0.00,0.00,15.21,22.22,23.54,6.23,30.96,1016.04,2059.00,3503.85,3370.99,3670.92,349.72,332.27,0.09,0000 0000 0000 0000 000000
2014-05-01 00:22:22,0.04,0.00,0.00,15.22,22.22,23.54,6.27,30.83,1016.05,2059.00,3503.45,3370.98,3670.60,349.82,332.35,0.10,0000 0000 0000 0000 000000
2014-05-01 00:23:22,0.05,0.00,0.00,15.20,22.22,23.53,6.00,30.58,1016.06,2059.00,3503.17,3370.96,3670.27,349.65,332.51,0.10,0000 0000 0000 0000 000000
2014-05-01 00:24:22,0.06,0.00,0.00,15.21,22.22,23.53,6.18,30.75,1016.07,2059.00,3503.05,3370.68,3670.10,350.10,332.63,0.11,0000 0000 0000 0000 000000
2014-05-01 00:25:23,0.06,0.00,0.00,15.22,22.22,23.64,6.01,30.88,1016.09,2059.00,3502.80,3370.30,3670.03,348.86,331.45,0.11,0000 0000 0000 0000 000000
2014-05-01 00:26:23,0.07,0.00,0.00,15.25,22.22,23.66,6.25,30.96,1016.10,2059.00,3502.34,3370.12,3669.97,349.49,332.01,0.12,0000 0000 0000 0000 000000
2014-05-01 00:27:23,0.08,0.00,0.00,15.15,22.22,23.59,6.26,30.79,1016.12,2059.00,3502.12,3370.05,3669.71,350.46,332.86,0.13,0000 0000 0000 0000 000000
2014-05-01 00:28:24,0.08,0.01,0.00,15.05,22.22,23.65,6.21,30.88,1016.13,2059.00,3502.04,3370.01,3669.35,350.05,332.75,0.13,0000 0000 0000 0000 000000
2014-05-01 00:29:24,0.07,0.01,0.00,14.99,22.22,23.68,6.25,30.88,1016.13,2059.00,3502.00,3370.00,3669.17,350.27,333.07,0.14,0000 0000 0000 0000 000000
2014-05-01 00:30:24,0.06,0.01,0.00,14.95,22.22,23.72,6.16,30.71,1016.13,2059.00,3501.89,3370.00,3669.06,349.91,332.77,0.14,0000 0000 0000 0000 000000
2014-05-01 00:31:24,0.05,0.01,0.00,14.93,22.22,23.71,6.13,30.50,1016.12,2059.00,3501.52,3370.00,3669.02,350.00,332.91,0.15,0000 0000 0000 0000 000000
2014-05-01 00:32:25,0.05,0.01,0.00,14.95,22.22,23.69,6.33,30.79,1016.12,2059.00,3501.19,3369.99,3668.99,350.11,333.33,0.16,0000 0000 0000 0000 000000
2014-05-01 00:33:25,0.05,0.01,0.00,14.96,22.22,23.68,6.24,30.67,1016.13,2059.00,3501.07,3369.96,3668.96,349.89,332.12,0.16,0000 0000 0000 0000 000000
2014-05-01 00:34:25,0.04,0.01,0.00,14.98,22.22,23.69,6.13,30.75,1016.13,2059.00,3501.01,3369.84,3668.82,350.17,332.60,0.17,0000 0000 0000 0000 000000
2014-05-01 00:35:25,0.04,0.01,0.00,15.09,22.22,23.58,6.26,30.67,1016.13,2059.00,3500.92,3369.66,3668.44,350.19,332.98,0.17,0000 0000 0000 0000 000000
2014-05-01 00:36:26,0.08,0.01,0.00,15.15,22.21,23.54,6.24,30.67,1016.13,2059.00,3500.63,3369.33,3668.18,350.10,332.98,0.18,0000 0000 0000 0000 000000
2014-05-01 00:37:26,0.12,0.01,0.00,15.15,22.21,23.55,6.23,30.63,1016.13,2059.00,3500.29,3369.15,3668.06,349.44,331.92,0.19,0000 0000 0000 0000 000000
2014-05-01 00:38:26,0.09,0.01,0.00,15.17,22.21,23.54,6.20,30.96,1016.13,2059.00,3500.11,3369.09,3668.01,350.38,333.19,0.19,0000 0000 0000 0000 000000
2014-05-01 00:39:27,0.04,0.01,0.00,15.18,22.21,23.61,6.23,30.79,1016.13,2059.00,3500.04,3369.06,3667.99,349.94,332.53,0.20,0000 0000 0000 0000 000000
2014-05-01 00:40:27,0.02,0.01,0.00,15.18,22.21,23.67,6.22,30.75,1016.13,2059.00,3499.96,3369.03,3667.93,349.32,331.95,0.20,0000 0000 0000 0000 000000
2014-05-01 00:41:27,0.03,0.01,0.00,15.25,22.20,23.66,6.16,30.75,1016.13,2059.00,3499.61,3369.01,3667.57,349.49,332.03,0.21,0000 0000 0000 0000 000000
2014-05-01 00:42:27,0.08,0.01,0.00,15.29,22.20,23.60,6.35,30.71,1016.13,2059.00,3499.28,3369.00,3667.23,351.85,334.22,0.21,0000 0000 0000 0000 000000
2014-05-01 00:43:28,0.07,0.01,0.00,15.28,22.20,23.58,6.18,30.71,1016.13,2059.00,3499.13,3368.99,3667.09,350.80,333.34,0.22,0000 0000 0000 0000 000000
2014-05-01 00:44:28,0.03,0.01,0.00,15.27,22.20,23.54,6.25,30.67,1016.13,2059.00,3499.04,3368.99,3667.04,350.48,332.95,0.23,0000 0000 0000 0000 000000
2014-05-01 00:45:28,0.01,0.01,0.00,15.19,22.20,23.51,6.19,30.50,1016.13,2059.00,3499.00,3368.93,3667.01,350.71,333.00,0.23,0000 0000 0000 0000 000000
2014-05-01 00:46:29,0.01,0.01,0.00,15.06,22.20,23.53,6.28,30.75,1016.13,2059.00,3498.83,3368.87,3666.99,350.59,333.28,0.24,0000 0000 0000 0000 000000
2014-05-01 00:47:29,0.05,0.01,0.00,15.04,22.20,23.57,6.13,30.63,1016.13,2059.00,3498.40,3368.61,3666.90,349.58,332.39,0.24,0000 0000 0000 0000 000000
2014-05-01 00:48:29,0.13,0.01,0.00,15.03,22.20,23.56,6.24,30.67,1016.14,2059.00,3498.15,3368.26,3666.46,350.21,333.10,0.25,0000 0000 0000 0000 000000
2014-05-01 00:49:29,0.13,0.01,0.00,15.05,22.20,23.69,6.21,30.63,1016.13,2059.00,3498.05,3368.10,3666.18,350.05,332.78,0.26,0000 0000 0000 0000 000000
2014-05-01 00:50:30,0.07,0.01,0.00,15.06,22.20,23.70,5.97,30.58,1016.13,2059.00,3497.98,3368.05,3666.08,349.11,331.89,0.26,0000 0000 0000 0000 000000
2014-05-01 00:51:30,0.03,0.01,0.00,15.07,22.20,23.72,6.08,30.58,1016.13,2059.00,3497.75,3368.02,3666.03,349.54,332.28,0.27,0000 0000 0000 0000 000000
2014-05-01 00:52:30,0.05,0.01,0.00,15.12,22.20,23.73,6.12,30.83,1016.13,2059.00,3497.39,3368.00,3666.00,350.04,332.63,0.27,0000 0000 0000 0000 000000
2014-05-01 00:53:31,0.04,0.01,0.00,15.13,22.20,23.70,6.25,30.63,1016.13,2059.00,3497.18,3368.00,3665.96,350.02,332.68,0.28,0000 0000 0000 0000 000000
2014-05-01 00:54:31,0.02,0.01,0.00,15.11,22.20,23.70,6.07,30.46,1016.13,2059.00,3497.07,3368.00,3665.82,348.33,331.09,0.28,0000 0000 0000 0000 000000
2014-05-01 00:55:31,0.03,0.01,0.00,15.12,22.20,23.68,6.11,30.79,1016.13,2059.01,3497.01,3367.98,3665.56,349.76,332.77,0.29,0000 0000 0000 0000 000000
2014-05-01 00:56:32,0.03,0.01,0.00,15.17,22.20,23.69,6.13,30.67,1016.13,2059.00,3496.94,3367.94,3665.24,349.53,332.16,0.30,0000 0000 0000 0000 000000
2014-05-01 00:57:32,0.06,0.02,0.00,15.18,22.20,23.71,6.25,30.67,1016.13,2059.00,3496.49,3367.86,3665.09,350.42,332.99,0.30,0000 0000 0000 0000 000000
2014-05-01 00:58:32,0.09,0.02,0.00,15.22,22.20,23.72,6.26,30.50,1016.13,2059.00,3496.20,3367.72,3665.03,350.12,332.66,0.31,0000 0000 0000 0000 000000
2014-05-01 00:59:32,0.08,0.02,0.00,15.24,22.20,23.73,6.07,30.63,1016.13,2059.00,3496.08,3367.37,3665.00,349.79,332.18,0.31,0000 0000 0000 0000 000000
2014-05-01 01:00:33,0.07,0.02,0.00,15.27,22.20,23.71,6.17,30.58,1016.13,2059.00,3496.02,3367.18,3664.97,350.26,332.74,0.32,0000 0000 0000 0000 000000
2014-05-01 01:01:33,0.05,0.02,0.00,15.27,22.20,23.72,6.28,30.67,1016.13,2059.00,3495.98,3367.09,3664.91,350.30,332.50,0.33,0000 0000 0000 0000 000000
2014-05-01 01:02:33,0.04,0.02,0.00,15.21,22.20,23.72,6.16,30.58,1016.13,2059.02,3495.80,3367.05,3664.71,349.72,332.29,0.33,0000 0000 0000 0000 000000
2014-05-01 01:03:34,0.07,0.02,0.00,15.08,22.20,23.71,6.36,30.71,1016.13,2059.01,3495.34,3367.02,3664.30,350.75,333.41,0.34,0000 0000 0000 0000 000000
2014-05-01 01:04:34,0.09,0.02,0.00,15.02,22.20,23.72,6.18,30.67,1016.13,2059.01,3495.12,3367.00,3664.11,349.89,332.67,0.34,0000 0000 0000 0000 000000
2014-05-01 01:05:34,0.04,0.02,0.00,14.94,22.20,23.70,6.44,30.75,1016.13,2059.00,3495.03,3367.00,3664.03,351.75,334.53,0.35,0000 0000 0000 0000 000000
2014-05-01 01:06:34,0.02,0.02,0.00,14.94,22.20,23.69,6.25,30.71,1016.13,2059.02,3494.97,3366.98,3663.98,350.20,333.06,0.36,0000 0000 0000 0000 000000
2014-05-01 01:07:35,0.02,0.02,0.00,14.94,22.20,23.67,6.36,30.67,1016.13,2059.02,3494.78,3366.98,3663.97,351.41,333.65,0.36,0000 0000 0000 0000 000000
2014-05-01 01:08:35,0.05,0.02,0.00,15.00,22.20,23.57,6.29,30.71,1016.13,2059.01,3494.36,3366.82,3663.76,350.47,333.25,0.37,0000 0000 0000 0000 000000
2014-05-01 01:09:35,0.10,0.02,0.00,15.07,22.20,23.55,6.08,30.75,1016.13,2059.01,3494.13,3366.50,3663.36,349.99,333.10,0.37,0000 0000 0000 0000 000000
2014-05-01 01:10:35,0.13,0.02,0.00,15.08,22.20,23.60,6.14,30.58,1016.13,2059.01,3494.05,3366.25,3663.16,349.11,331.86,0.38,0000 0000 0000 0000 000000
2014-05-01 01:11:36,0.08,0.02,0.00,15.14,22.20,23.66,6.17,30.71,1016.13,2059.01,3493.96,3366.11,3663.08,350.50,333.12,0.38,0000 0000 0000 0000 000000
2014-05-01 01:12:36,0.04,0.02,0.00,15.16,22.20,23.67,6.25,30.63,1016.13,2059.00,3493.66,3366.06,3663.03,350.50,333.41,0.39,0000 0000 0000 0000 000000
2014-05-01 01:13:36,0.06,0.02,0.00,15.14,22.20,23.69,6.25,30.71,1016.13,2059.00,3493.30,3366.02,3662.98,349.83,332.47,0.40,0000 0000 0000 0000 000000
2014-05-01 01:14:37,0.05,0.02,0.00,15.19,22.20,23.69,6.30,30.79,1016.14,2059.00,3493.11,3366.00,3662.91,350.27,332.85,0.40,0000 0000 0000 0000 000000
2014-05-01 01:15:37,0.03,0.02,0.00,15.25,22.20,23.71,6.12,30.92,1016.14,2059.00,3493.03,3365.98,3662.66,349.01,331.59,0.41,0000 0000 0000 0000 000000
2014-05-01 01:16:37,0.05,0.02,0.00,15.29,22.20,23.71,6.30,30.58,1016.13,2059.00,3492.94,3365.94,3662.26,350.23,332.82,0.41,0000 0000 0000 0000 000000
2014-05-01 01:17:37,0.07,0.02,0.00,15.33,22.20,23.71,6.26,30.71,1016.13,2059.00,3492.51,3365.86,3662.09,349.70,332.14,0.42,0000 0000 0000 0000 000000
2014-05-01 01:18:38,0.08,0.02,0.00,15.37,22.20,23.69,6.19,30.58,1016.13,2059.00,3492.20,3365.66,3662.03,350.06,332.13,0.43,0000 0000 0000 0000 000000
2014-05-01 01:19:38,0.09,0.02,0.00,15.40,22.20,23.66,6.03,30.67,1016.15,2059.00,3492.08,3365.45,3662.01,349.36,331.75,0.43,0000 0000 0000 0000 000000
2014-05-01 01:20:38,0.06,0.02,0.00,15.24,22.20,23.69,6.28,30.67,1016.14,2059.01,3492.02,3365.23,3661.99,350.26,333.09,0.44,0000 0000 0000 0000 000000
2014-05-01 01:21:38,0.04,0.02,0.00,15.12,22.21,23.69,6.21,30.71,1016.14,2059.00,3491.91,3365.09,3661.84,350.58,333.22,0.44,0000 0000 0000 0000 000000
2014-05-01 01:22:39,0.07,0.02,0.00,15.06,22.20,23.67,6.25,30.63,1016.13,2059.00,3491.50,3365.03,3661.40,350.74,333.43,0.45,0000 0000 0000 0000 000000
2014-05-01 01:23:39,0.10,0.03,0.00,15.07,22.20,23.69,6.17,30.67,1016.13,2059.00,3491.20,3365.01,3661.14,350.15,332.86,0.45,0000 0000 0000 0000 000000
2014-05-01 01:24:39,0.07,0.03,0.00,15.09,22.20,23.70,6.26,30.96,1016.14,2059.00,3491.08,3365.00,3661.05,349.91,332.86,0.46,0000 0000 0000 0000 000000
2014-05-01 01:25:39,0.02,0.03,0.00,15.09,22.20,23.71,6.28,31.00,1016.13,2059.00,3491.00,3364.98,3661.00,350.00,332.98,0.47,0000 0000 0000 0000 000000
2014-05-01 01:26:40,0.01,0.03,0.00,15.12,22.20,23.74,6.19,31.04,1016.13,2059.00,3490.81,3364.96,3660.98,349.65,332.36,0.47,0000 0000 0000 0000 000000
2014-05-01 01:27:40,0.03,0.03,0.00,15.18,22.20,23.71,6.23,30.71,1016.13,2059.00,3490.50,3364.90,3660.89,350.49,333.34,0.48,0000 0000 0000 0000 000000
2014-05-01 01:28:40,0.07,0.03,0.00,15.24,22.20,23.72,6.16,30.67,1016.13,2059.00,3490.21,3364.72,3660.65,349.28,331.84,0.48,0000 0000 0000 0000 000000
2014-05-01 01:29:40,0.08,0.03,0.00,15.24,22.20,23.73,6.16,30.75,1016.13,2059.00,3490.08,3364.59,3660.38,349.48,332.31,0.49,0000 0000 0000 0000 000000
2014-05-01 01:30:41,0.08,0.03,0.00,15.24,22.20,23.72,6.19,30.63,1016.13,2059.00,3490.03,3364.31,3660.14,350.29,332.79,0.50,0000 0000 0000 0000 000000
2014-05-01 01:31:41,0.08,0.03,0.00,15.22,22.21,23.72,6.18,30.63,1016.13,2059.00,3489.98,3364.11,3660.05,350.40,332.92,0.50,0000 0000 0000 0000 000000
2014-05-01 01:32:41,0.05,0.03,0.00,15.23,22.21,23.72,6.11,30.63,1016.13,2059.00,3489.79,3364.04,3660.01,350.32,332.84,0.51,0000 0000 0000 0000 000000
2014-05-01 01:33:41,0.05,0.03,0.00,15.26,22.21,23.70,6.07,30.71,1016.13,2059.00,3489.42,3364.01,3659.99,349.94,332.38,0.51,0000 0000 0000 0000 000000
2014-05-01 01:34:42,0.04,0.03,0.00,15.24,22.21,23.72,6.33,30.83,1016.14,2059.00,3489.17,3364.00,3659.93,350.60,333.09,0.52,0000 0000 0000 0000 000000
2014-05-01 01:35:42,0.04,0.03,0.00,15.27,22.21,23.73,6.37,30.75,1016.13,2059.00,3489.06,3364.00,3659.63,350.52,332.98,0.53,0000 0000 0000 0000 000000
2014-05-01 01:36:42,0.05,0.03,0.00,15.29,22.21,23.73,6.18,30.75,1016.13,2059.00,3489.01,3363.98,3659.32,349.32,331.82,0.53,0000 0000 0000 0000 000000
2014-05-01 01:37:43,0.04,0.03,0.00,15.27,22.21,23.67,6.21,31.00,1016.13,2059.00,3488.89,3363.93,3659.14,349.08,331.60,0.54,0000 0000 0000 0000 000000
2014-05-01 01:38:43,0.06,0.03,0.00,15.15,22.22,23.60,6.20,30.79,1016.13,2059.00,3488.53,3363.60,3659.05,350.32,332.93,0.54,0000 0000 0000 0000 000000
2014-05-01 01:39:43,0.12,0.03,0.00,15.09,22.21,23.61,6.22,30.71,1016.13,2059.00,3488.21,3363.26,3659.01,349.92,332.57,0.55,0000 0000 0000 0000 000000
2014-05-01 01:40:43,0.09,0.03,0.00,15.06,22.22,23.59,6.14,30.79,1016.13,2059.00,3488.08,3363.16,3659.00,349.41,332.17,0.55,0000 0000 0000 0000 000000
2014-05-01 01:41:44,0.04,0.03,0.00,15.04,22.22,23.63,6.28,30.96,1016.13,2059.00,3488.03,3363.08,3658.97,350.13,332.99,0.56,0000 0000 0000 0000 000000
2014-05-01 01:42:44,0.02,0.03,0.00,15.08,22.22,23.67,6.25,30.88,1016.13,2059.00,3488.01,3363.03,3658.74,349.45,332.19,0.57,0000 0000 0000 0000 000000
2014-05-01 01:43:44,0.03,0.03,0.00,15.14,22.22,23.69,6.09,30.63,1016.13,2059.00,3487.91,3363.02,3658.41,348.55,331.26,0.57,0000 0000 0000 0000 000000
2014-05-01 01:44:44,0.07,0.03,0.00,15.17,22.22,23.70,6.26,30.75,1016.13,2059.00,3487.56,3363.00,3658.17,349.43,332.06,0.58,0000 0000 0000 0000 000000
2014-05-01 01:45:44,0.07,0.03,0.00,15.24,22.22,23.72,6.08,30.79,1016.13,2059.00,3487.24,3363.00,3658.07,349.70,332.25,0.58,0000 0000 0000 0000 000000
2014-05-01 01:46:45,0.05,0.03,0.00,15.28,22.22,23.73,6.28,30.96,1016.15,2059.00,3487.08,3362.98,3658.02,350.21,332.85,0.59,0000 0000 0000 0000 000000
2014-05-01 01:47:45,0.02,0.03,0.00,15.32,22.22,23.73,6.03,30.54,1016.13,2059.00,3487.03,3362.94,3657.99,349.34,331.66,0.60,0000 0000 0000 0000 000000
2014-05-01 01:48:45,0.02,0.03,0.00,15.33,22.22,23.67,6.00,30.46,1016.14,2059.00,3486.94,3362.92,3657.95,349.75,332.18,0.60,0000 0000 0000 0000 000000
2014-05-01 01:49:46,0.04,0.03,0.00,15.33,22.22,23.64,6.27,30.63,1016.13,2059.00,3486.63,3362.82,3657.76,350.82,333.20,0.61,0000 0000 0000 0000 000000
2014-05-01 01:50:46,0.09,0.04,0.00,15.32,22.22,23.71,6.23,30.79,1016.13,2059.00,3486.27,3362.52,3657.37,350.96,333.59,0.61,0000 0000 0000 0000 000000
2014-05-01 01:51:46,0.13,0.04,0.00,15.32,22.22,23.69,6.30,30.71,1016.13,2059.00,3486.11,3362.24,3657.15,350.32,332.51,0.62,0000 0000 0000 0000 000000
2014-05-01 01:52:47,0.09,0.04,0.00,15.31,22.22,23.65,6.08,30.71,1016.14,2059.00,3486.03,3362.10,3657.05,348.78,331.30,0.62,0000 0000 0000 0000 000000
2014-05-01 01:53:47,0.04,0.04,0.00,15.33,22.22,23.58,6.09,30.46,1016.13,2059.00,3485.98,3362.04,3657.02,349.82,332.24,0.63,0000 0000 0000 0000 000000
2014-05-01 01:54:47,0.02,0.04,0.00,15.34,22.22,23.62,6.13,30.63,1016.13,2059.00,3485.81,3362.01,3657.00,348.83,331.30,0.64,0000 0000 0000 0000 000000
2014-05-01 01:55:47,0.04,0.04,0.00,15.30,22.22,23.63,6.24,30.71,1016.13,2059.00,3485.37,3362.00,3656.94,351.00,333.40,0.64,0000 0000 0000 0000 000000
2014-05-01 01:56:48,0.06,0.04,0.00,15.20,22.22,23.59,6.15,30.67,1016.13,2059.00,3485.14,3362.00,3656.61,349.67,332.18,0.65,0000 0000 0000 0000 000000
2014-05-01 01:57:48,0.06,0.04,0.00,15.07,22.22,23.55,6.09,30.79,1016.13,2059.00,3485.05,3361.99,3656.39,349.33,332.07,0.65,0000 0000 0000 0000 000000
2014-05-01 01:58:48,0.04,0.04,0.00,15.05,22.22,23.59,6.16,30.58,1016.13,2059.00,3485.02,3361.93,3656.18,350.30,333.02,0.66,0000 0000 0000 0000 000000
2014-05-01 01:59:49,0.03,0.04,0.00,15.03,22.22,23.60,6.25,30.71,1016.13,2059.00,3484.91,3361.88,3656.08,349.91,332.68,0.67,0000 0000 0000 0000 000000
2014-05-01 02:00:49,0.05,0.04,0.00,15.05,22.22,23.61,6.16,30.58,1016.13,2059.00,3484.47,3361.61,3656.03,350.64,333.36,0.67,0000 0000 0000 0000 000000
2014-05-01 02:01:49,0.10,0.04,0.00,15.07,22.22,23.62,6.22,30.75,1016.13,2059.00,3484.19,3361.30,3656.01,349.11,331.87,0.68,0000 0000 0000 0000 000000
2014-05-01 02:02:49,0.09,0.04,0.00,15.09,22.22,23.59,6.19,30.54,1016.14,2059.00,3484.07,3361.13,3655.97,349.45,332.18,0.68,0000 0000 0000 0000 000000
2014-05-01 02:03:50,0.06,0.04,0.00,15.15,22.22,23.58,6.27,30.79,1016.14,2059.00,3484.00,3361.04,3655.70,349.88,332.80,0.69,0000 0000 0000 0000 000000
2014-05-01 02:04:50,0.06,0.04,0.00,15.18,22.22,23.56,6.33,30.83,1016.14,2059.00,3483.66,3361.01,3655.31,350.21,332.84,0.70,0000 0000 0000 0000 000000
2014-05-01 02:05:50,0.09,0.04,0.00,15.18,22.22,23.57,6.18,30.58,1016.14,2059.00,3483.27,3361.00,3655.13,349.18,331.82,0.70,0000 0000 0000 0000 000000
2014-05-01 02:06:51,0.07,0.04,0.00,15.17,22.22,23.61,6.18,30.79,1016.15,2059.00,3483.09,3360.98,3655.04,349.91,332.53,0.71,0000 0000 0000 0000 000000
2014-05-01 02:07:51,0.04,0.04,0.00,15.19,22.22,23.61,6.24,30.88,1016.18,2059.00,3483.00,3360.86,3654.99,350.16,332.21,0.71,0000 0000 0000 0000 000000
2014-05-01 02:08:51,0.04,0.04,0.00,15.23,22.22,23.57,6.18,30.67,1016.16,2059.00,3482.92,3360.68,3654.96,351.32,333.73,0.72,0000 0000 0000 0000 000000
2014-05-01 02:09:51,0.07,0.04,0.00,15.27,22.22,23.58,6.23,30.75,1016.15,2059.00,3482.63,3360.42,3654.73,349.50,332.02,0.72,0000 0000 0000 0000 000000
2014-05-01 02:10:52,0.11,0.04,0.00,15.31,22.22,23.60,6.27,31.08,1016.16,2059.00,3482.34,3360.21,3654.42,349.73,332.19,0.73,0000 0000 0000 0000 000000
2014-05-01 02:11:52,0.12,0.04,0.00,15.33,22.22,23.60,6.23,30.83,1016.15,2059.00,3482.13,3360.09,3654.17,350.98,333.36,0.74,0000 0000 0000 0000 000000
2014-05-01 02:12:52,0.06,0.04,0.00,15.36,22.22,23.57,6.25,30.92,1016.17,2059.00,3482.05,3360.03,3654.06,350.41,332.79,0.74,0000 0000 0000 0000 000000
2014-05-01 02:13:52,0.02,0.04,0.00,15.37,22.22,23.57,6.01,30.54,1016.16,2059.00,3482.00,3360.01,3654.02,349.32,331.74,0.75,0000 0000 0000 0000 000000
2014-05-01 02:14:52,0.01,0.04,0.00,15.36,22.22,23.60,6.19,30.79,1016.17,2059.00,3481.83,3360.00,3654.00,349.97,332.37,0.75,0000 0000 0000 0000 000000
2014-05-01 02:15:52,0.04,0.04,0.00,15.32,22.22,23.54,6.16,30.63,1016.15,2059.00,3481.43,3360.00,3653.91,349.82,332.27,0.76,0000 0000 0000 0000 000000
2014-05-01 02:16:52,0.07,0.04,0.00,15.21,22.22,23.52,6.13,30.83,1016.16,2059.00,3481.17,3359.97,3653.53,349.66,332.25,0.77,0000 0000 0000 0000 000000
2014-05-01 02:17:53,0.07,0.05,0.00,15.17,22.22,23.65,6.28,30.71,1016.16,2059.00,3481.06,3359.93,3653.21,350.02,332.63,0.77,0000 0000 0000 0000 000000
2014-05-01 02:18:53,0.05,0.05,0.00,15.14,22.22,23.72,6.28,30.83,1016.15,2059.00,3481.02,3359.65,3653.09,350.39,333.02,0.78,0000 0000 0000 0000 000000
2014-05-01 02:19:53,0.08,0.05,0.00,15.17,22.22,23.71,6.14,30.92,1016.15,2059.00,3480.94,3359.35,3653.04,348.80,331.64,0.78,0000 0000 0000 0000 000000
2014-05-01 02:20:53,0.07,0.05,0.00,15.18,22.22,23.67,6.20,30.75,1016.18,2059.00,3480.54,3359.20,3653.01,349.70,332.74,0.79,0000 0000 0000 0000 000000
2014-05-01 02:21:53,0.09,0.05,0.00,15.21,22.22,23.68,6.19,30.58,1016.22,2059.00,3480.24,3359.09,3653.00,350.41,332.89,0.79,0000 0000 0000 0000 000000
2014-05-01 02:22:54,0.05,0.05,0.00,15.23,22.22,23.70,6.09,30.83,1016.21,2059.00,3480.09,3359.03,3652.96,348.69,331.32,0.80,0000 0000 0000 0000 000000
2014-05-01 02:23:54,0.03,0.05,0.00,15.27,22.22,23.74,6.29,30.88,1016.25,2058.99,3480.03,3359.01,3652.84,349.34,331.89,0.81,0000 0000 0000 0000 000000
2014-05-01 02:24:54,0.01,0.05,0.00,15.31,22.22,23.72,6.39,31.17,1016.25,2058.99,3479.99,3358.99,3652.43,350.18,332.50,0.81,0000 0000 0000 0000 000000
2014-05-01 02:25:54,0.05,0.05,0.00,15.32,22.23,23.61,6.19,30.67,1016.26,2058.99,3479.65,3358.99,3652.16,350.87,333.55,0.82,0000 0000 0000 0000 000000
2014-05-01 02:26:55,0.08,0.05,0.00,15.30,22.23,23.61,6.19,30.92,1016.28,2058.99,3479.28,3358.96,3652.07,349.42,332.63,0.82,0000 0000 0000 0000 000000
2014-05-01 02:27:55,0.06,0.05,0.00,15.26,22.23,23.64,6.25,30.46,1016.31,2058.98,3479.11,3358.92,3652.03,351.45,333.52,0.83,0000 0000 0000 0000 000000
2014-05-01 02:28:55,0.02,0.05,0.00,15.24,22.24,23.72,6.17,30.71,1016.32,2058.99,3479.04,3358.78,3652.00,349.93,332.93,0.84,0000 0000 0000 0000 000000
2014-05-01 02:29:55,0.05,0.05,0.00,15.25,22.24,23.73,6.06,30.54,1016.28,2058.99,3479.00,3358.61,3651.99,349.70,332.28,0.84,0000 0000 0000 0000 000000
2014-05-01 02:30:56,0.03,0.05,0.00,15.30,22.24,23.67,6.23,30.63,1016.31,2058.99,3478.98,3358.37,3651.93,351.30,333.38,0.85,0000 0000 0000 0000 000000
2014-05-01 02:31:56,0.05,0.05,0.00,15.34,22.24,23.63,6.31,30.50,1016.32,2058.99,3478.83,3358.23,3651.76,351.21,333.76,0.85,0000 0000 0000 0000 000000
2014-05-01 02:32:56,0.08,0.05,0.00,15.32,22.24,23.63,6.04,30.63,1016.36,2058.99,3478.47,3358.11,3651.39,349.09,331.64,0.86,0000 0000 0000 0000 000000
2014-05-01 02:33:56,0.11,0.05,0.00,15.33,22.24,23.63,6.22,30.54,1016.45,2058.99,3478.18,3358.04,3651.14,351.10,333.56,0.87,0000 0000 0000 0000 000000
2014-05-01 02:34:57,0.06,0.05,0.00,15.32,22.24,23.59,6.23,30.96,1016.51,2058.99,3478.07,3358.02,3651.05,349.09,331.68,0.87,0000 0000 0000 0000 000000
2014-05-01 02:35:57,0.02,0.05,0.00,15.22,22.24,23.64,6.17,30.67,1016.50,2058.99,3478.02,3358.00,3651.02,351.40,334.00,0.88,0000 0000 0000 0000 000000
2014-05-01 02:36:57,0.00,0.05,0.00,15.13,22.24,23.65,6.14,30.54,1016.57,2058.99,3477.82,3357.99,3650.98,350.26,333.04,0.88,0000 0000 0000 0000 000000